Location: Ocean City
(38.3360°N, 75.0850°W)
Time: 02:46:09
(UTC-05:00)

BEESAT - Visible Passes

Search period start: 19 November 2019 00:00
Search period end: 29 November 2019 00:00
Orbit: 700 x 709 km, 98.6° (Epoch: 18 November)

Date Brightness Start Highest point End Pass type
(mag) Time Alt. Az. Time Alt. Az. Time Alt. Az.
19 Nov ? 03:42:13 10° ESE 03:45:55 23° ENE 03:46:46 22° NE visible
19 Nov ? 05:19:09 10° SSW 05:23:27 34° W 05:25:40 23° NW visible
19 Nov ? 17:19:55 10° NNE 17:24:40 65° ESE 17:29:23 10° S visible
19 Nov ? 18:59:36 10° NW 19:01:50 13° WNW 19:04:03 10° W visible
20 Nov ? 04:24:26 10° SSE 04:29:06 63° ENE 04:30:32 42° NNE visible
20 Nov ? 06:05:24 10° WSW 06:07:13 12° W 06:09:02 10° WNW visible
20 Nov ? 18:03:29 10° N 18:08:01 44° WNW 18:12:31 10° SW visible
21 Nov ? 03:31:58 10° ESE 03:35:09 18° ENE 03:35:25 18° ENE visible
21 Nov ? 05:08:00 10° S 05:12:32 45° W 05:14:20 31° NW visible
21 Nov ? 17:09:09 10° NNE 17:13:46 49° E 17:18:22 10° S visible
21 Nov ? 18:48:03 10° NNW 18:51:06 17° WNW 18:54:08 10° WSW visible
22 Nov ? 04:13:43 10° SE 04:18:16 48° ENE 04:19:13 41° NE visible
22 Nov ? 05:53:20 10° SW 05:56:14 16° W 05:58:08 13° WNW visible
22 Nov ? 17:52:30 10° N 17:57:11 58° WNW 18:01:51 10° SSW visible
23 Nov ? 03:21:57 10° E 03:24:07 14° ENE 03:24:07 14° ENE visible
23 Nov ? 04:56:58 10° S 05:01:38 59° WSW 05:03:02 41° NW visible
23 Nov ? 18:36:44 10° NNW 18:40:21 22° WNW 18:43:56 10° WSW visible
24 Nov ? 04:03:07 10° SE 04:07:27 37° ENE 04:07:56 36° NE visible
24 Nov ? 05:41:42 10° SW 05:45:16 21° W 05:46:51 18° WNW visible
24 Nov ? 17:41:35 10° N 17:46:20 77° WNW 17:51:06 10° SSW visible
25 Nov ? 03:12:29 10° ENE 03:12:50 10° ENE 03:12:50 10° ENE visible
25 Nov ? 04:46:01 10° S 04:50:45 79° WSW 04:51:45 55° NNW visible
25 Nov ? 18:25:33 10° N 18:29:34 28° WNW 18:33:35 10° SW visible
26 Nov ? 03:52:37 10° SE 03:56:39 29° ENE 03:56:39 29° ENE visible
26 Nov ? 05:30:18 10° SSW 05:34:19 27° W 05:35:35 24° WNW visible
26 Nov ? 17:30:42 10° NNE 17:35:29 82° ESE 17:40:16 10° SSW visible
26 Nov ? 19:11:30 10° NW 19:12:31 11° WNW 19:13:32 10° WNW visible
27 Nov ? 04:35:09 10° SSE 04:39:53 80° ENE 04:40:29 67° N visible
27 Nov ? 18:14:26 10° N 18:18:46 36° WNW 18:23:06 10° SW visible
28 Nov ? 03:42:15 10° ESE 03:45:24 22° ENE 03:45:24 22° ENE visible
28 Nov ? 05:19:03 10° SSW 05:23:23 35° W 05:24:20 32° WNW visible
28 Nov ? 17:19:52 10° NNE 17:24:36 62° ESE 17:29:19 10° S visible
28 Nov ? 18:59:24 10° NNW 19:01:48 14° WNW 19:04:11 10° W visible
